Weather History for Paynesville, MN

Change the Weather History Date:

Sunday, March 31, 2013

  Actual Average (KLJF) Record (KLJF)
Temperature  
Mean Temperature 26 °F -  
Max Temperature 33 °F 50 °F 77 °F (1968)
Min Temperature 18 °F 28 °F -2 °F (1969)
Degree Days  
Heating Degree Days 40    
Moisture  
Dew Point 22 °F    
Average Humidity 76    
Maximum Humidity 99    
Minimum Humidity 54    
Precipitation  
Precipitation 0.00 in - - ()
Sea Level Pressure  
Sea Level Pressure 29.94 in    
Wind  
Wind Speed 14 mph (WNW)    
Max Wind Speed 24 mph    
Max Gust Speed 33 mph    
Visibility 8 miles    
Events      
Averages and records for this station are not official NWS values.
T = Trace of Precipitation, MM = Missing Value Source: NWS Daily Summary

Daily Weather History Graph

Daily Weather History Graph

Search for Another Location

Airport:

Trip Planner

Search our weather history database for the weather conditions in past years. The results will help you decide how hot, cold, wet, or windy it might be!

Date:

Astronomy

Mar. 31, 2013 Rise Set
Actual Time 7:00 AM CDT 7:46 PM CDT
Civil Twilight 6:30 AM CDT 8:16 PM CDT
Nautical Twilight 5:55 AM CDT 8:51 PM CDT
Astronomical Twilight 5:18 AM CDT 9:28 PM CDT
Moon 12:04 AM CDT (3/31) 9:36 AM CDT (3/31)
Length of Visible Light 13h 45m
Length of Day
12h 45m
Waning Gibbous, 77% of the Moon is Illuminated
Mar 31
Waning Gibbous
Apr 2
Last Quarter
Apr 10
New
Apr 18
First Quarter
Apr 25
Full

Hourly Weather History & Observations

Time (CDT) Temp. Windchill Dew Point Humidity Pressure Visibility Wind Dir Wind Speed Gust Speed Precip Events Conditions
12:13 AM 32.0 °F 22.5 °F 31.1 °F 96% 29.90 in 2.0 mi West 12.7 mph 16.1 mph N/A   Overcast
12:33 AM 32.0 °F 25.6 °F 31.1 °F 96% 29.89 in 1.8 mi WNW 6.9 mph - N/A   Overcast
12:53 AM 32.0 °F 24.2 °F 31.1 °F 96% 29.88 in 1.0 mi West 9.2 mph - N/A   Overcast
1:13 AM 32.0 °F 24.8 °F 31.1 °F 96% 29.88 in 1.5 mi West 8.1 mph - N/A   Overcast
1:33 AM 32.0 °F 24.8 °F 31.5 °F 98% 29.87 in 2.0 mi West 8.1 mph - N/A   Overcast
1:53 AM 32.0 °F 23.6 °F 31.6 °F 99% 29.87 in 2.5 mi West 10.4 mph - N/A   Overcast
2:13 AM 32.0 °F 22.5 °F 31.8 °F 99% 29.87 in 1.8 mi West 12.7 mph 17.3 mph N/A   Overcast
2:33 AM 32.0 °F 23.6 °F 31.6 °F 99% 29.86 in 1.8 mi West 10.4 mph - N/A   Overcast
2:52 AM 32.0 °F 23.0 °F 31.6 °F 99% 29.86 in 2.5 mi West 11.5 mph 20.7 mph N/A   Overcast
3:13 AM 32.0 °F 22.5 °F 31.5 °F 98% 29.86 in 3.0 mi West 12.7 mph - N/A   Overcast
3:33 AM 32.0 °F 22.1 °F 31.1 °F 96% 29.85 in 4.0 mi West 13.8 mph - N/A   Overcast
3:52 AM 32.0 °F 22.1 °F 30.4 °F 94% 29.84 in 4.0 mi West 13.8 mph - N/A   Overcast
4:13 AM 31.1 °F 21.4 °F 29.8 °F 95% 29.84 in 4.0 mi West 12.7 mph - N/A   Overcast
4:33 AM 30.6 °F 23.1 °F 29.3 °F 95% 29.82 in 4.0 mi WSW 8.1 mph - N/A   Scattered Clouds
4:53 AM 30.6 °F 23.8 °F 29.3 °F 95% 29.82 in 3.0 mi West 6.9 mph - N/A   Mostly Cloudy
5:13 AM 31.8 °F 22.3 °F 30.2 °F 94% 29.81 in 5.0 mi West 12.7 mph - N/A   Overcast
5:33 AM 32.9 °F 22.8 °F 30.9 °F 92% 29.81 in 7.0 mi West 15.0 mph 19.6 mph N/A   Overcast
5:53 AM 33.1 °F 22.6 °F 30.9 °F 92% 29.81 in 7.0 mi West 16.1 mph - N/A   Overcast
6:13 AM 32.9 °F 24.1 °F 30.4 °F 90% 29.81 in 7.0 mi West 11.5 mph 18.4 mph N/A   Overcast
6:33 AM 32.4 °F 19.7 °F 29.3 °F 88% 29.82 in 7.0 mi West 23.0 mph 28.8 mph N/A   Overcast
6:53 AM 32.0 °F 21.6 °F 29.3 °F 90% 29.82 in 7.0 mi WNW 15.0 mph 25.3 mph N/A   Overcast
7:13 AM 32.2 °F 21.1 °F 29.7 °F 90% 29.82 in 7.0 mi WNW 17.3 mph - N/A   Overcast
7:33 AM 32.2 °F 23.2 °F 29.5 °F 90% 29.82 in 5.0 mi WNW 11.5 mph 18.4 mph N/A   Overcast
7:53 AM 32.2 °F 22.3 °F 29.3 °F 89% 29.83 in 5.0 mi WNW 13.8 mph 19.6 mph N/A   Overcast
8:13 AM 32.0 °F 22.1 °F 29.3 °F 90% 29.84 in 5.0 mi WNW 13.8 mph 18.4 mph N/A   Overcast
8:33 AM 32.0 °F 21.6 °F 29.1 °F 89% 29.84 in 5.0 mi WNW 15.0 mph 20.7 mph N/A   Overcast
8:53 AM 32.2 °F 21.8 °F 28.8 °F 87% 29.85 in 7.0 mi WNW 15.0 mph 20.7 mph N/A   Overcast
9:13 AM 32.4 °F 22.1 °F 27.3 °F 82% 29.86 in 10.0 mi NW 15.0 mph 24.2 mph N/A   Overcast
9:33 AM 32.0 °F 21.6 °F 27.1 °F 82% 29.86 in 10.0 mi NW 15.0 mph 23.0 mph N/A   Overcast
9:53 AM 32.2 °F 21.4 °F 25.7 °F 77% 29.87 in 10.0 mi WNW 16.1 mph 26.5 mph N/A   Overcast
10:13 AM 32.2 °F 21.1 °F 24.8 °F 74% 29.88 in 10.0 mi NW 17.3 mph 25.3 mph N/A   Scattered Clouds
10:33 AM 32.0 °F 21.6 °F 23.7 °F 71% 29.89 in 10.0 mi NW 15.0 mph 28.8 mph N/A   Clear
10:53 AM 32.0 °F 18.9 °F 21.9 °F 66% 29.90 in 10.0 mi NW 24.2 mph 29.9 mph N/A   Clear
11:13 AM 31.1 °F 18.3 °F 19.0 °F 61% 29.91 in 10.0 mi NW 21.9 mph 33.4 mph N/A   Scattered Clouds
11:32 AM 30.9 °F 17.5 °F 19.2 °F 62% 29.91 in 10.0 mi NW 24.2 mph 33.4 mph N/A   Scattered Clouds
11:53 AM 30.6 °F 17.9 °F 18.7 °F 61% 29.93 in 10.0 mi NNW 20.7 mph 29.9 mph N/A   Clear
12:13 PM 30.7 °F 18.5 °F 17.2 °F 57% 29.93 in 10.0 mi NNW 19.6 mph 28.8 mph N/A   Scattered Clouds
12:33 PM 30.0 °F 16.9 °F 16.0 °F 56% 29.93 in 10.0 mi NW 21.9 mph 27.6 mph N/A   Scattered Clouds
12:52 PM 30.6 °F 17.6 °F 16.5 °F 56% 29.94 in 10.0 mi NNW 21.9 mph 26.5 mph N/A   Clear
1:13 PM 30.0 °F 17.2 °F 15.3 °F 54% 29.94 in 10.0 mi NW 20.7 mph 28.8 mph N/A   Clear
1:33 PM 30.2 °F 17.4 °F 16.2 °F 56% 29.95 in 10.0 mi NW 20.7 mph 25.3 mph N/A   Clear
1:53 PM 30.0 °F 16.9 °F 15.6 °F 55% 29.96 in 10.0 mi NW 21.9 mph 27.6 mph N/A   Clear
2:13 PM 30.0 °F 18.3 °F 16.2 °F 56% 29.96 in 10.0 mi NW 17.3 mph 26.5 mph N/A   Clear
2:33 PM 29.8 °F 17.7 °F 17.6 °F 60% 29.97 in 10.0 mi NW 18.4 mph 25.3 mph N/A   Clear
2:53 PM 29.8 °F 18.0 °F 18.0 °F 61% 29.97 in 10.0 mi NW 17.3 mph 23.0 mph N/A   Clear
3:13 PM 29.3 °F 17.3 °F 16.9 °F 60% 29.97 in 10.0 mi WNW 17.3 mph 25.3 mph N/A   Clear
3:33 PM 29.1 °F 17.1 °F 15.6 °F 57% 29.97 in 10.0 mi NW 17.3 mph 27.6 mph N/A   Clear
3:53 PM 29.1 °F 17.9 °F 16.0 °F 58% 29.97 in 10.0 mi NW 15.0 mph - N/A   Clear
4:13 PM 28.8 °F 15.5 °F 15.3 °F 57% 29.98 in 10.0 mi NW 20.7 mph 28.8 mph N/A   Clear
4:33 PM 28.9 °F 17.7 °F 15.6 °F 58% 29.98 in 10.0 mi NW 15.0 mph 25.3 mph N/A   Clear
4:53 PM 28.6 °F 15.6 °F 17.1 °F 62% 29.99 in 10.0 mi WNW 19.6 mph 25.3 mph N/A   Clear
5:13 PM 28.9 °F 16.5 °F 17.6 °F 63% 29.99 in 10.0 mi WNW 18.4 mph 26.5 mph N/A   Clear
5:33 PM 28.2 °F 17.2 °F 16.3 °F 61% 30.00 in 10.0 mi WNW 13.8 mph 24.2 mph N/A   Clear
5:53 PM 28.2 °F 15.9 °F 16.9 °F 63% 30.01 in 10.0 mi WNW 17.3 mph 23.0 mph N/A   Clear
6:13 PM 27.7 °F 14.8 °F 15.8 °F 61% 30.01 in 10.0 mi NW 18.4 mph 25.3 mph N/A   Clear
6:33 PM 27.0 °F 15.2 °F 14.2 °F 59% 30.03 in 10.0 mi NW 15.0 mph 26.5 mph N/A   Clear
6:53 PM 26.2 °F 12.6 °F 14.5 °F 61% 30.04 in 10.0 mi NW 19.6 mph 25.3 mph N/A   Clear
7:13 PM 25.3 °F 12.2 °F 14.9 °F 65% 30.04 in 10.0 mi NW 17.3 mph 23.0 mph N/A   Clear
7:33 PM 24.3 °F 10.8 °F 14.5 °F 67% 30.05 in 10.0 mi NW 17.3 mph 28.8 mph N/A   Clear
7:53 PM 23.4 °F 11.1 °F 14.4 °F 68% 30.06 in 10.0 mi NW 13.8 mph 25.3 mph N/A   Clear
8:13 PM 22.6 °F 9.6 °F 14.0 °F 69% 30.07 in 10.0 mi NW 15.0 mph 21.9 mph N/A   Clear
8:33 PM 22.1 °F 7.6 °F 13.6 °F 70% 30.08 in 10.0 mi NW 18.4 mph 23.0 mph N/A   Clear
8:53 PM 21.7 °F 8.0 °F 13.5 °F 70% 30.09 in 10.0 mi NW 16.1 mph 25.3 mph N/A   Clear
9:13 PM 21.2 °F 7.8 °F 13.1 °F 71% 30.10 in 10.0 mi NW 15.0 mph 19.6 mph N/A   Clear
9:33 PM 20.8 °F 7.3 °F 12.7 °F 71% 30.10 in 10.0 mi NW 15.0 mph 19.6 mph N/A   Clear
10:13 PM 20.3 °F 6.6 °F 12.2 °F 71% 30.13 in 10.0 mi NW 15.0 mph 18.4 mph N/A   Clear
10:33 PM 19.9 °F 7.3 °F 11.5 °F 70% 30.13 in 10.0 mi NW 12.7 mph 23.0 mph N/A   Clear
10:53 PM 19.4 °F 7.2 °F 11.8 °F 72% 30.14 in 10.0 mi NW 11.5 mph 18.4 mph N/A   Clear
11:13 PM 19.0 °F 6.1 °F 11.7 °F 73% 30.14 in 10.0 mi NW 12.7 mph 17.3 mph N/A   Clear
11:33 PM 18.5 °F 6.1 °F 11.1 °F 73% 30.14 in 10.0 mi NW 11.5 mph 17.3 mph N/A   Clear
11:53 PM 18.3 °F 6.6 °F 10.6 °F 72% 30.15 in 10.0 mi NW 10.4 mph 18.4 mph N/A   Clear